www.pogodaiklimat.ru

Погода и климат >> Архив погоды >> Индия >> Churu


ПОГОДА в Churu

  • Прогноз погоды в Churu
  • Монитор погоды в Churu
  • Климат города

АРХИВ ПОГОДЫ в Churu

Время (UTC), дата Ветер
(напр.,м/с)
 
Видим.   Явления Облачность Т
(С)
Тd
(С)
f
(%)
Тe
(С)
Тes
(С)
Комфортность P
(гПа)
Po
(гПа)
Тmin
(С)
Tmax
(С)
R
(мм)
R24
(мм)
S
(см)
18 8.12 штиль 0 4000 м ясно +8.8 +0.4 56 +8 +8 1016.9 1017.0
21 8.12 штиль 0 4000 м ясно +6.6 -0.1 62 +6 +6 1016.9 1017.0
00 9.12 штиль 0 4000 м ясно +5.0 -1.5 63 +4 +4 1016.5 1017.0
03 9.12 штиль 0 4000 м ясно +5.4 +0.2 69 +5 +6 1018.3 1018.0 +4.0 +27.4
06 9.12 С 1 4000 м ясно +25.0 +2.1 22 +24 +34 комфорт 1015.9 1016.0
09 9.12 ЮЗ 1 4000 м ясно +29.0 +0.9 16 +27 +34 жарко 1012.9 1013.0
12 9.12 штиль 0 4000 м ясно +23.4 +5.7 32 +24 +24 комфорт 1013.2 1013.0 +29.5
15 9.12 штиль 0 4000 м ясно +14.0 +4.0 51 +14 +14 1016.1 1016.0
18 9.12 штиль 0 4000 м ясно +10.8 +3.6 61 +10 +10 1016.9 1017.0
21 9.12 штиль 0 4000 м ясно +8.4 +2.7 67 +8 +8 1016.8 1017.0
00 10.12 штиль 0 4000 м ясно +7.4 +2.6 72 +7 +7 1016.1 1016.0
03 10.12 штиль 0 4000 м ясно +10.0 +4.2 67 +10 +11 1017.4 1017.0 +6.5 +29.5
06 10.12 ЮВ 1 4000 м ясно +24.0 +6.7 33 +24 +34 комфорт 1016.3 1016.0
09 10.12 СЗ 1 4000 м ясно +28.0 +7.6 28 +28 +35 жарко 1013.0 1013.0
12 10.12 штиль 0 4000 м 4/3 1200 м
[Sc Ac trans]
+24.4 +11.3 44 +26 +26 жарко 1013.1 1013.0 +29.7
15 10.12 штиль 0 4000 м 8/5 1200 м
[Sc Ac trans]
+20.0 +8.6 48 +21 +21 комфорт 1014.8 1015.0
18 10.12 штиль 0 4000 м 3/0
[Ac trans]
+17.6 +6.3 47 +18 +18 1014.7 1015.0
21 10.12 штиль 0 4000 м 3/0
[Ac trans]
+15.0 +5.3 52 +15 +15 1014.6 1015.0
00 11.12 штиль 0 4000 м 9/6 1200 м
[Sc Ac trans]
+15.0 +6.8 58 +15 +15 1013.9 1014.0
03 11.12 СВ 2 4000 м 10/6 1200 м
[Sc As op]
+15.4 +6.4 55 +15 +15 1014.6 1015.0 +14.7 +29.7
06 11.12 Ю 2 4000 м {дождь} 10/5 1200 м
[Sc As op Ci fib]
+21.6 +7.8 41 +23 +25 комфорт 1013.3 1013.0 0.0
09 11.12 В 1 4000 м 9/9 1200 м
[Sc]
+23.6 +9.7 41 +25 +25 комфорт 1010.4 1010.0 0.0
12 11.12 ЮВ 2 4000 м {дождь} 9/9 1200 м
[Sc]
+19.0 +11.8 63 +21 +21 комфорт 1010.7 1011.0 +24.2 0.1
15 11.12 штиль 0 4000 м слабый дождь 9/9 1050 м
[Sc]
+16.8 +12.5 76 +17 +17 1012.4 1012.0 0.1
18 11.12 ЮВ 1 4000 м 5/5 1200 м
[Sc]
+16.2 +13.0 81 +18 +18 1013.1 1013.0 0.1
21 11.12 штиль 0 4000 м 5/5 1200 м
[Sc]
+15.6 +13.1 85 +15 +15 1012.8 1013.0
00 12.12 СЗ 1 4000 м дымка 9/9 1200 м
[Sc]
+13.4 +11.5 88 +14 +14 1013.9 1014.0 0.1
03 12.12 штиль 0 1000 м дымка 10/10 1000 м
[Sc diur, vesp Ac und Cs]
+14.2 +12.4 89 +14 +14 1016.7 1017.0 0.1
06 12.12 ЮЗ 2 4000 м ясно +17.2 +10.5 65 +18 +26 1017.2 1017.0
09 12.12 ЮВ 1 4000 м ясно +19.6 +11.2 58 +22 +29 комфорт 1015.0 1015.0
12 12.12 штиль 0 4000 м ясно +17.4 +11.1 66 +17 +17 1015.4 1015.0 +20.0
15 12.12 штиль 0 2000 м мгла ясно +13.4 +10.7 84 +13 +13 1017.9 1018.0
18 12.12 штиль 0 2000 м мгла ясно +11.4 +9.4 88 +11 +11 1018.6 1019.0
21 12.12 штиль 0 2000 м дымка ясно +9.6 +7.9 89 +9 +9 1018.4 1018.0
00 13.12 ЮВ 1 <50 м туман ?/? +6.0 +6.0 100 +6 +6 1018.7 1019.0
03 13.12 СВ 1 <50 м туман ?/? +8.0 +8.0 100 +8 +8 1020.6 1021.0 +5.5 +20.0
06 13.12 В 1 4000 м в посл. час туман 4/0
[Ci fib]
+13.0 +11.1 88 +14 +23 1021.1 1021.0
09 13.12 СВ 1 4000 м 6/0
[Ci fib]
+19.0 +7.2 46 +21 +27 комфорт 1017.9 1018.0
12 13.12 СВ 1 4000 м 5/0 900 м
[Ac trans]
+17.8 +7.6 51 +19 +19 1017.5 1018.0 +20.0
15 13.12 СЗ 2 4000 м 4/0
[Ac trans]
+14.0 +11.0 82 +13 +13 1018.9 1019.0
18 13.12 С 2 4000 м 4/0
[Ac trans]
+12.2 +10.7 91 +11 +11 1019.4 1019.0
21 13.12 С 2 1000 м дымка {туман} 3/0
[Ac trans]
+10.6 +9.4 92 +10 +10 1019.3 1019.0
00 14.12 С 2 500 м туман ?/? +9.6 +8.8 95 +8 +8 1019.6 1020.0
03 14.12 СВ 1 500 м туман ?/? +10.0 +7.9 87 +9 +9 1021.8 1022.0 +9.0 +20.0
06 14.12 СЗ 1 2000 м мгла {туман} ясно +14.4 +7.5 63 +15 +24 1022.5 1023.0
09 14.12 СВ 1 4000 м ясно +18.4 +5.8 44 +20 +27 1019.5 1020.0
12 14.12 штиль 0 4000 м ясно +17.4 +5.5 45 +17 +17 1018.8 1019.0 +19.6
15 14.12 СВ 1 2000 м мгла ясно +13.0 +6.8 66 +14 +14 1020.7 1021.0
18 14.12 СВ 1 2000 м дымка ясно +10.4 +6.6 77 +11 +11 1021.0 1021.0
21 14.12 штиль 0 2000 м дымка ясно +8.4 +6.2 86 +8 +8 1020.9 1021.0
00 15.12 штиль 0 500 м туман ясно +6.4 +5.5 94 +5 +5 1020.6 1021.0
03 15.12 ЮВ 1 <50 м туман ?/? +6.2 +6.2 100 +6 +6 1023.0 1023.0 +4.7 +19.6
06 15.12 СЗ 1 2000 м мгла {туман} 6/0
[Ci fib]
+13.0 +9.1 77 +14 +23 1023.5 1024.0
12 15.12 СЗ 2 4000 м ясно +15.6 +5.6 51 +16 +16 1022.1 1022.0 +19.6

 

Местоположение метеостанции Churu (Rajasthan, Индия): широта 28.25 долгота 74.92 высота над уровнем моря 291 м.

В архиве по умолчанию представлена погода в Churu за последнюю неделю. Архивные данные за месяц целиком и за предыдущие месяцы, начиная с января 2011 года, Вы можете получить, выбрав интересующий диапазон дат из раскрывающегося списка и нажав кнопку "Ввод!".

Внимание! Время в таблицах - всемирное. Для получения местного времени необходимо прибавить поправку, которая в Churu равна 5.5 ч.

Смотрите также архив погоды в соседних городах и на ближайших метеорологических станциях:

Погода в Pilani (Rajasthan, Индия) (65 км)
Погода в Hissar (Haryana, Индия) (129 км)
Погода в Bikaner (Rajasthan, Индия) (161 км)
Погода в Jaipur (Rajasthan, Индия) (181 км)
Погода в Ajmer (Rajasthan, Индия) (202 км)
Погода в Sri Ganganagar (Rajasthan, Индия) (212 км)
Погода в New Delhi Aya Nagar (Delhi, Индия) (218 км)
Погода в New Delhi Airport (Delhi, Индия) (218 км)
Погода в New Delhi (Delhi, Индия) (226 км)
Погода в Ridge (Delhi, Индия) (235 км)

Пояснения к столбцам:

Ветер - указаны скорость ветра в м/с - средняя за 10 мин, порывы в срок и между сроками (в фигурных скобках) и направление, откуда дует ветер: С - северный, СВ - северо-восточный, В - восточный, ЮВ - юго-восточный, Ю - южный, ЮЗ - юго-западный, З - западный, СЗ - северо-западный.
Видимость - горизонтальная дальность видимости в метрах или километрах. При видимости от 1 до 10 км при отсутствии осадков обычно наблюдается дымка, при ухудшении видимости до 1 км и менее - туман. В сухую погоду видимость может ухудшаться дымом, пылью или мглою.
Явления - указаны атмосферные явления, наблюдавшиеся в срок или в последний час перед сроком; фигурными скобками обозначены явления, наблюдавшиеся между сроками (за 1-3 часа до срока); квадратными скобками обозначены град или гололедные отложения с указанием их диаметра в мм.
Облачность - указаны через наклонную черту общая и нижняя облачность в баллах и высота нижней границы облаков в метрах; квадратными скобками обозначены формы облаков: Ci - перистые, Cs - перисто-слоистые, Cc - перисто-кучевые, Ac - высококучевые, As - высокослоистые, Sc - слоисто-кучевые, Ns - слоисто-дождевые, Cu - кучевые, Cb - кучево-дождевые. Подробнее классификацию облаков см. в Атласе облаков (PDF).
T - Температура воздуха - температура, измеренная на высоте 2 м над землей.
Td - Температура точки росы - температура, при понижении до которой содержащийся в воздухе водяной пар достигнет насыщения.
f - Относительная влажность воздуха - влажноcть воздуха, измеренная на высоте 2 м над землей.
Te - Эффективная температура - температура, которую ощущает одетый по сезону человек в тени. Характеристика душности погоды. При расчете учитывается влияние влажности воздуха и скорости ветра на теплоощущения человека.
Tes - Эффективная температура на солнце - температура, которую ощущает человек, с поправкой на солнечный нагрев. Характеристика знойности погоды. Зависит от высоты солнца над горизонтом, облачности и скорости ветра. Ночью, в пасмурную погоду, а также при ветре 12 м/с и более поправка равна нулю.
P - Атмосферное давление - приведенное к уровню моря атмосферное давление.
Po - Атмосферное давление - измеренное на уровне метеостанции атмосферное давление.
Tmin - Минимальная температура - минимум температуры воздуха на высоте 2 м над землей.
Tmax - Максимальная температура - максимум температуры воздуха на высоте 2 м над землей.
R - Количество осадков - Количество выпавших осадков за период времени, мм. При наведении курсора мыши на число - период времени, за который выпало указанное количество осадков.
R24 - Количество осадков - Количество выпавших осадков за 24 часа, мм.
S - Снежный покров - Высота снежного покрова, см. При наведении курсора мыши на число - состояние снежного покрова и степень покрытия местности в баллах.